| time (UTC) | temp F | wind direction | speed MPH | gust MPH | rain 1hr in | rain 24hr in | rain mn in | humidity % | barometer mb |
| 20260901181925 | 67 | 225 | 1.0 | 7.0 | 0.00 | 0.01 | 0.01 | 93 | 1016.2 |
| 20260901181346 | 67 | 121 | 3.0 | 7.0 | 0.00 | 0.01 | 0.01 | 93 | 1016.1 |
| 20260901180911 | 67 | 84 | 2.0 | 6.0 | 0.00 | 0.01 | 0.01 | 93 | 1016.1 |
| 20260901180358 | 67 | 127 | 3.0 | 5.0 | 0.00 | 0.01 | 0.01 | 92 | 1016.0 |
| 20260901175905 | 67 | 152 | 3.0 | 7.0 | 0.00 | 0.01 | 0.01 | 92 | 1016.0 |
| 20260901175408 | 67 | 123 | 4.0 | 8.0 | 0.00 | 0.01 | 0.01 | 92 | 1016.0 |
| 20260901174911 | 67 | 93 | 2.0 | 8.0 | 0.00 | 0.01 | 0.01 | 92 | 1015.9 |
| 20260901174352 | 68 | 157 | 2.0 | 8.0 | 0.00 | 0.01 | 0.01 | 91 | 1015.8 |
| 20260901173859 | 68 | 116 | 1.0 | 7.0 | 0.00 | 0.01 | 0.01 | 91 | 1015.8 |
| 20260901173358 | 68 | 159 | 2.0 | 7.0 | 0.00 | 0.01 | 0.01 | 91 | 1015.8 |
| 20260901172904 | 68 | 76 | 4.0 | 8.0 | 0.00 | 0.01 | 0.01 | 91 | 1015.9 |
| 20260901172348 | 68 | 117 | 3.0 | 7.0 | 0.00 | 0.01 | 0.01 | 91 | 1016.0 |
| 20260901171909 | 68 | 76 | 3.0 | 8.0 | 0.00 | 0.01 | 0.01 | 91 | 1016.0 |
| 20260901171351 | 68 | 103 | 4.0 | 8.0 | 0.00 | 0.01 | 0.01 | 90 | 1016.0 |
| 20260901170853 | 68 | 132 | 2.0 | 6.0 | 0.00 | 0.01 | 0.01 | 90 | 1015.9 |
| 20260901170348 | 68 | 155 | 3.0 | 9.0 | 0.00 | 0.01 | 0.01 | 90 | 1015.9 |
| 20260901165915 | 68 | 86 | 4.0 | 9.0 | 0.00 | 0.01 | 0.01 | 89 | 1015.9 |
| 20260901165400 | 69 | 108 | 4.0 | 7.0 | 0.00 | 0.01 | 0.01 | 88 | 1016.0 |
| 20260901164845 | 69 | 113 | 3.0 | 6.0 | 0.00 | 0.01 | 0.01 | 88 | 1016.1 |
| 20260901164349 | 69 | 149 | 2.0 | 6.0 | 0.00 | 0.01 | 0.01 | 88 | 1016.1 |
| 20260901163855 | 69 | 150 | 2.0 | 7.0 | 0.00 | 0.01 | 0.01 | 88 | 1016.1 |
| 20260901163349 | 69 | 144 | 3.0 | 7.0 | 0.00 | 0.01 | 0.01 | 88 | 1016.1 |
| 20260901162855 | 69 | 128 | 2.0 | 6.0 | 0.00 | 0.01 | 0.01 | 88 | 1016.1 |
| 20260901162402 | 69 | 119 | 2.0 | 8.0 | 0.00 | 0.01 | 0.01 | 88 | 1016.0 |
| 20260901161844 | 69 | 113 | 4.0 | 8.0 | 0.00 | 0.01 | 0.01 | 88 | 1016.0 |
| 20260901161348 | 70 | 135 | 2.0 | 6.0 | 0.00 | 0.01 | 0.01 | 88 | 1016.0 |
| 20260901160853 | 70 | 132 | 3.0 | 8.0 | 0.00 | 0.01 | 0.01 | 88 | 1015.8 |
| 20260901160404 | 70 | 129 | 2.0 | 8.0 | 0.00 | 0.01 | 0.01 | 89 | 1015.9 |
| 20260901155906 | 70 | 96 | 3.0 | 9.0 | 0.00 | 0.01 | 0.01 | 88 | 1015.9 |
| 20260901155350 | 70 | 220 | 2.0 | 7.0 | 0.00 | 0.01 | 0.01 | 89 | 1016.0 |
| 20260901154853 | 70 | 225 | 3.0 | 6.0 | 0.00 | 0.01 | 0.01 | 89 | 1016.0 |
| 20260901154358 | 70 | 226 | 2.0 | 6.0 | 0.00 | 0.01 | 0.01 | 89 | 1016.1 |
| 20260901153843 | 70 | 226 | 4.0 | 7.0 | 0.00 | 0.01 | 0.01 | 89 | 1016.1 |
| 20260901153347 | 70 | 226 | 2.0 | 7.0 | 0.01 | 0.01 | 0.01 | 89 | 1016.1 |
| 20260901152912 | 70 | 227 | 3.0 | 6.0 | 0.01 | 0.01 | 0.01 | 90 | 1016.2 |
| 20260901152356 | 70 | 227 | 3.0 | 6.0 | 0.01 | 0.01 | 0.01 | 90 | 1016.2 |
| 20260901151859 | 70 | 227 | 3.0 | 6.0 | 0.01 | 0.01 | 0.01 | 91 | 1016.1 |
| 20260901151344 | 70 | 227 | 3.0 | 6.0 | 0.01 | 0.01 | 0.01 | 92 | 1016.2 |
| 20260901150852 | 69 | 227 | 2.0 | 6.0 | 0.01 | 0.01 | 0.01 | 92 | 1016.3 |
| 20260901150349 | 69 | 227 | 2.0 | 6.0 | 0.01 | 0.01 | 0.01 | 93 | 1016.3 |
| 20260901145916 | 69 | 258 | 1.0 | 4.0 | 0.01 | 0.01 | 0.01 | 93 | 1016.2 |
| 20260901145358 | 69 | 258 | 1.0 | 4.0 | 0.01 | 0.01 | 0.01 | 93 | 1016.3 |
| 20260901144903 | 69 | 258 | 0.0 | 3.0 | 0.01 | 0.01 | 0.01 | 93 | 1016.3 |
| 20260901144405 | 68 | 258 | 1.0 | 3.0 | 0.01 | 0.01 | 0.01 | 92 | 1016.3 |
| 20260901143849 | 69 | 258 | 1.0 | 3.0 | 0.01 | 0.01 | 0.01 | 93 | 1016.3 |
| 20260901143352 | 68 | 258 | 0.0 | 4.0 | 0.00 | 0.00 | 0.00 | 93 | 1016.3 |
| 20260901142856 | 68 | 258 | 1.0 | 4.0 | 0.00 | 0.00 | 0.00 | 93 | 1016.4 |
| 20260901142402 | 68 | 258 | 0.0 | 2.0 | 0.00 | 0.00 | 0.00 | 93 | 1016.4 |
| 20260901141906 | 68 | 258 | 0.0 | 3.0 | 0.00 | 0.00 | 0.00 | 93 | 1016.4 |
| 20260901141349 | 68 | 258 | 1.0 | 3.0 | 0.00 | 0.00 | 0.00 | 93 | 1016.4 |
| 20260901140854 | 68 | 258 | 0.0 | 3.0 | 0.00 | 0.00 | 0.00 | 93 | 1016.6 |
| 20260901140350 | 68 | 258 | 1.0 | 3.0 | 0.00 | 0.00 | 0.00 | 93 | 1016.5 |
| 20260901135900 | 68 | 258 | 1.0 | 3.0 | 0.00 | 0.00 | 0.00 | 93 | 1016.5 |
| 20260901135346 | 68 | 258 | 1.0 | 3.0 | 0.00 | 0.00 | 0.00 | 93 | 1016.5 |
| 20260901134847 | 68 | 258 | 2.0 | 3.0 | 0.00 | 0.00 | 0.00 | 93 | 1016.7 |
| 20260901134411 | 68 | 258 | 1.0 | 2.0 | 0.00 | 0.00 | 0.00 | 93 | 1016.6 |
| 20260901133856 | 68 | 258 | 0.0 | 2.0 | 0.00 | 0.00 | 0.00 | 93 | 1016.6 |
| 20260901133358 | 67 | 258 | 0.0 | 2.0 | 0.00 | 0.00 | 0.00 | 93 | 1016.6 |
| 20260901132859 | 67 | 258 | 0.0 | 0.0 | 0.00 | 0.00 | 0.00 | 93 | 1016.5 |
| 20260901132345 | 67 | 258 | 0.0 | 2.0 | 0.00 | 0.00 | 0.00 | 93 | 1016.5 |
| 20260901131848 | 67 | 258 | 0.0 | 3.0 | 0.00 | 0.00 | 0.00 | 93 | 1016.6 |
| 20260901131352 | 67 | 258 | 0.0 | 3.0 | 0.00 | 0.00 | 0.00 | 93 | 1016.6 |
| 20260901130917 | 67 | 258 | 0.0 | 2.0 | 0.00 | 0.00 | 0.00 | 93 | 1016.5 |
| 20260901130346 | 67 | 258 | 0.0 | 2.0 | 0.00 | 0.00 | 0.00 | 92 | 1016.5 |
| 20260901125855 | 67 | 258 | 0.0 | 2.0 | 0.00 | 0.00 | 0.00 | 92 | 1016.5 |
| 20260901125400 | 67 | 258 | 0.0 | 0.0 | 0.00 | 0.00 | 0.00 | 92 | 1016.5 |
| 20260901124902 | 67 | 258 | 0.0 | 0.0 | 0.00 | 0.00 | 0.00 | 92 | 1016.5 |
| 20260901124408 | 67 | 258 | 0.0 | 0.0 | 0.00 | 0.00 | 0.00 | 92 | 1016.5 |
| 20260901123853 | 67 | 258 | 0.0 | 1.0 | 0.00 | 0.00 | 0.00 | 92 | 1016.4 |
| 20260901123415 | 67 | 258 | 0.0 | 0.0 | 0.00 | 0.00 | 0.00 | 92 | 1016.4 |
| 20260901122918 | 67 | 258 | 0.0 | 0.0 | 0.00 | 0.00 | 0.00 | 92 | 1016.5 |
| 20260901122343 | 67 | 258 | 0.0 | 0.0 | 0.00 | 0.00 | 0.00 | 92 | 1016.5 |
| 20260901121844 | 67 | 258 | 0.0 | 1.0 | 0.00 | 0.00 | 0.00 | 92 | 1016.4 |
| 20260901121348 | 67 | 258 | 0.0 | 1.0 | 0.00 | 0.00 | 0.00 | 92 | 1016.4 |
| 20260901120852 | 67 | 258 | 0.0 | 0.0 | 0.00 | 0.00 | 0.00 | 92 | 1016.6 |
| 20260901120349 | 67 | 258 | 0.0 | 0.0 | 0.00 | 0.00 | 0.00 | 91 | 1016.5 |
| 20260901115916 | 67 | 258 | 0.0 | 0.0 | 0.00 | 0.00 | 0.00 | 91 | 1016.4 |
| 20260901115358 | 67 | 258 | 0.0 | 0.0 | 0.00 | 0.00 | 0.00 | 91 | 1016.5 |
| 20260901114859 | 67 | 258 | 0.0 | 0.0 | 0.00 | 0.00 | 0.00 | 91 | 1016.5 |
| 20260901114402 | 67 | 258 | 0.0 | 2.0 | 0.00 | 0.00 | 0.00 | 91 | 1016.5 |
| 20260901113844 | 67 | 258 | 0.0 | 3.0 | 0.00 | 0.00 | 0.00 | 91 | 1016.5 |
| 20260901113343 | 67 | 258 | 0.0 | 1.0 | 0.00 | 0.00 | 0.00 | 91 | 1016.4 |
| 20260901112847 | 67 | 258 | 0.0 | 1.0 | 0.00 | 0.00 | 0.00 | 91 | 1016.4 |
| 20260901112350 | 67 | 258 | 0.0 | 1.0 | 0.00 | 0.00 | 0.00 | 91 | 1016.4 |
| 20260901111851 | 67 | 258 | 0.0 | 0.0 | 0.00 | 0.00 | 0.00 | 91 | 1016.4 |
| 20260901111356 | 67 | 258 | 0.0 | 2.0 | 0.00 | 0.00 | 0.00 | 90 | 1016.3 |
| 20260901110900 | 67 | 258 | 0.0 | 2.0 | 0.00 | 0.00 | 0.00 | 90 | 1016.3 |
| 20260901110356 | 67 | 258 | 0.0 | 0.0 | 0.00 | 0.00 | 0.00 | 90 | 1016.2 |
| 20260901105846 | 67 | 258 | 0.0 | 1.0 | 0.00 | 0.00 | 0.00 | 90 | 1016.3 |
| 20260901105411 | 67 | 258 | 0.0 | 1.0 | 0.00 | 0.00 | 0.00 | 90 | 1016.3 |
| 20260901104910 | 67 | 258 | 0.0 | 1.0 | 0.00 | 0.00 | 0.00 | 90 | 1016.4 |
| 20260901104352 | 67 | 258 | 0.0 | 0.0 | 0.00 | 0.00 | 0.00 | 89 | 1016.4 |
| 20260901103854 | 67 | 258 | 0.0 | 0.0 | 0.00 | 0.00 | 0.00 | 89 | 1016.3 |
| 20260901103357 | 67 | 258 | 0.0 | 0.0 | 0.00 | 0.00 | 0.00 | 89 | 1016.2 |
| 20260901102901 | 67 | 258 | 0.0 | 0.0 | 0.00 | 0.00 | 0.00 | 89 | 1016.2 |
| 20260901102342 | 67 | 258 | 0.0 | 1.0 | 0.00 | 0.00 | 0.00 | 89 | 1016.1 |
| 20260901101904 | 67 | 258 | 0.0 | 1.0 | 0.00 | 0.00 | 0.00 | 89 | 1016.1 |
| 20260901101423 | 67 | 258 | 0.0 | 3.0 | 0.00 | 0.00 | 0.00 | 88 | 1016.1 |
| 20260901100846 | 67 | 258 | 0.0 | 2.0 | 0.00 | 0.00 | 0.00 | 88 | 1016.1 |
| 20260901100420 | 67 | 258 | 0.0 | 1.0 | 0.00 | 0.00 | 0.00 | 88 | 1016.0 |
| 20260901095848 | 67 | 258 | 0.0 | 1.0 | 0.00 | 0.00 | 0.00 | 88 | 1016.0 |
| 20260901095418 | 67 | 258 | 0.0 | 2.0 | 0.00 | 0.00 | 0.00 | 88 | 1015.9 |
| 20260901094859 | 67 | 258 | 0.0 | 2.0 | 0.00 | 0.00 | 0.00 | 88 | 1015.9 |
| 20260901094341 | 67 | 258 | 0.0 | 2.0 | 0.00 | 0.00 | 0.00 | 88 | 1015.9 |
| 20260901093846 | 68 | 258 | 0.0 | 1.0 | 0.00 | 0.00 | 0.00 | 88 | 1016.0 |
| 20260901093350 | 67 | 258 | 0.0 | 2.0 | 0.00 | 0.00 | 0.00 | 88 | 1016.0 |
| 20260901092856 | 67 | 258 | 0.0 | 1.0 | 0.00 | 0.00 | 0.00 | 87 | 1015.9 |
| 20260901092346 | 67 | 258 | 0.0 | 1.0 | 0.00 | 0.00 | 0.00 | 87 | 1016.0 |
| 20260901091906 | 67 | 258 | 0.0 | 2.0 | 0.00 | 0.00 | 0.00 | 87 | 1016.0 |
| 20260901091350 | 67 | 258 | 0.0 | 3.0 | 0.00 | 0.00 | 0.00 | 87 | 1016.0 |
| 20260901090854 | 67 | 258 | 0.0 | 3.0 | 0.00 | 0.00 | 0.00 | 87 | 1015.9 |
| 20260901090412 | 67 | 258 | 0.0 | 2.0 | 0.00 | 0.00 | 0.00 | 87 | 1016.0 |
| 20260901085842 | 67 | 258 | 0.0 | 5.0 | 0.00 | 0.00 | 0.00 | 87 | 1016.0 |
| 20260901085347 | 67 | 258 | 0.0 | 5.0 | 0.00 | 0.00 | 0.00 | 87 | 1016.0 |
| 20260901084850 | 67 | 258 | 0.0 | 4.0 | 0.00 | 0.00 | 0.00 | 87 | 1016.1 |
| 20260901084354 | 67 | 258 | 0.0 | 5.0 | 0.00 | 0.00 | 0.00 | 87 | 1016.1 |
| 20260901083919 | 67 | 258 | 1.0 | 5.0 | 0.00 | 0.00 | 0.00 | 87 | 1016.1 |
| 20260901083400 | 67 | 258 | 1.0 | 3.0 | 0.00 | 0.00 | 0.00 | 87 | 1016.1 |
| 20260901082844 | 67 | 258 | 1.0 | 3.0 | 0.00 | 0.00 | 0.00 | 87 | 1016.0 |
| 20260901082350 | 67 | 258 | 0.0 | 4.0 | 0.00 | 0.00 | 0.00 | 87 | 1016.2 |
| 20260901081913 | 67 | 258 | 2.0 | 4.0 | 0.00 | 0.00 | 0.00 | 87 | 1016.2 |
| 20260901081357 | 67 | 258 | 1.0 | 4.0 | 0.00 | 0.00 | 0.00 | 87 | 1016.3 |
| 20260901080903 | 67 | 258 | 1.0 | 4.0 | 0.00 | 0.00 | 0.00 | 87 | 1016.2 |
| 20260901080348 | 67 | 258 | 2.0 | 4.0 | 0.00 | 0.00 | 0.00 | 87 | 1016.4 |
| 20260901075858 | 67 | 258 | 1.0 | 4.0 | 0.00 | 0.00 | 0.00 | 86 | 1016.4 |
| 20260901075343 | 67 | 258 | 1.0 | 4.0 | 0.00 | 0.00 | 0.00 | 86 | 1016.4 |
| 20260901074843 | 67 | 258 | 1.0 | 3.0 | 0.00 | 0.00 | 0.00 | 86 | 1016.4 |
| 20260901074344 | 67 | 258 | 1.0 | 3.0 | 0.00 | 0.00 | 0.00 | 86 | 1016.6 |
| 20260901073911 | 67 | 258 | 0.0 | 4.0 | 0.00 | 0.00 | 0.00 | 86 | 1016.6 |
| 20260901073354 | 68 | 258 | 1.0 | 4.0 | 0.00 | 0.00 | 0.00 | 86 | 1016.6 |
| 20260901072920 | 68 | 258 | 1.0 | 3.0 | 0.00 | 0.00 | 0.00 | 86 | 1016.6 |
| 20260901072403 | 68 | 258 | 1.0 | 4.0 | 0.00 | 0.00 | 0.00 | 86 | 1016.6 |
| 20260901071922 | 68 | 258 | 1.0 | 4.0 | 0.00 | 0.00 | 0.00 | 86 | 1016.6 |
| 20260901071345 | 68 | 258 | 1.0 | 3.0 | 0.00 | 0.00 | 0.00 | 85 | 1016.6 |
| 20260901070850 | 68 | 258 | 1.0 | 3.0 | 0.00 | 0.00 | 0.00 | 85 | 1016.7 |
| 20260901070355 | 68 | 258 | 0.0 | 3.0 | 0.00 | 0.00 | 0.00 | 85 | 1016.7 |
| 20260901065905 | 68 | 258 | 1.0 | 4.0 | 0.00 | 0.00 | 0.00 | 84 | 1016.8 |
| 20260901065410 | 68 | 258 | 1.0 | 4.0 | 0.00 | 0.00 | 0.00 | 84 | 1016.7 |
| 20260901064850 | 68 | 258 | 1.0 | 4.0 | 0.00 | 0.00 | 0.00 | 83 | 1016.6 |
| 20260901064352 | 68 | 258 | 0.0 | 3.0 | 0.00 | 0.00 | 0.00 | 83 | 1016.6 |
| 20260901063855 | 68 | 258 | 0.0 | 3.0 | 0.00 | 0.00 | 0.00 | 83 | 1016.6 |
| 20260901063356 | 68 | 258 | 0.0 | 3.0 | 0.00 | 0.00 | 0.00 | 83 | 1016.7 |
| 20260901062858 | 68 | 258 | 0.0 | 3.0 | 0.00 | 0.00 | 0.00 | 83 | 1016.7 |
| 20260901062341 | 68 | 258 | 1.0 | 3.0 | 0.00 | 0.00 | 0.00 | 83 | 1016.8 |
| 20260901061905 | 68 | 258 | 1.0 | 3.0 | 0.00 | 0.00 | 0.00 | 82 | 1016.8 |
| 20260901061350 | 68 | 258 | 0.0 | 2.0 | 0.00 | 0.00 | 0.00 | 83 | 1016.8 |
| 20260901060853 | 68 | 258 | 0.0 | 1.0 | 0.00 | 0.00 | 0.00 | 82 | 1016.7 |
| 20260901060409 | 68 | 258 | 0.0 | 2.0 | 0.00 | 0.00 | 0.00 | 82 | 1016.7 |
| 20260901055859 | 68 | 258 | 0.0 | 2.0 | 0.00 | 0.00 | 0.00 | 82 | 1016.7 |
| 20260901055416 | 68 | 258 | 0.0 | 3.0 | 0.00 | 0.00 | 0.00 | 82 | 1016.8 |
| 20260901054919 | 69 | 258 | 0.0 | 4.0 | 0.00 | 0.00 | 0.00 | 81 | 1016.8 |
| 20260901054344 | 69 | 258 | 0.0 | 4.0 | 0.00 | 0.00 | 0.00 | 80 | 1016.8 |
| 20260901053910 | 69 | 258 | 1.0 | 3.0 | 0.00 | 0.00 | 0.00 | 80 | 1016.8 |
| 20260901053353 | 69 | 258 | 0.0 | 3.0 | 0.00 | 0.00 | 0.00 | 80 | 1016.8 |
| 20260901052858 | 69 | 258 | 0.0 | 3.0 | 0.00 | 0.00 | 0.00 | 80 | 1016.8 |
| 20260901052344 | 69 | 258 | 0.0 | 4.0 | 0.00 | 0.00 | 0.00 | 80 | 1016.6 |
| 20260901051908 | 69 | 258 | 1.0 | 4.0 | 0.00 | 0.00 | 0.00 | 79 | 1016.7 |
| 20260901051351 | 69 | 258 | 0.0 | 4.0 | 0.00 | 0.00 | 0.00 | 79 | 1016.7 |
| 20260901050855 | 69 | 258 | 1.0 | 4.0 | 0.00 | 0.00 | 0.00 | 79 | 1016.8 |
| 20260901050352 | 69 | 258 | 1.0 | 4.0 | 0.00 | 0.00 | 0.00 | 79 | 1016.9 |
| 20260901045920 | 69 | 258 | 1.0 | 4.0 | 0.00 | 0.00 | 0.00 | 79 | 1017.0 |
| 20260901045406 | 69 | 258 | 0.0 | 4.0 | 0.00 | 0.00 | 0.00 | 79 | 1017.0 |
| 20260901044848 | 69 | 258 | 1.0 | 4.0 | 0.00 | 0.00 | 0.00 | 79 | 1016.9 |
| 20260901044355 | 69 | 258 | 2.0 | 4.0 | 0.00 | 0.00 | 0.00 | 79 | 1016.9 |
| 20260901043843 | 69 | 258 | 1.0 | 4.0 | 0.00 | 0.00 | 0.00 | 79 | 1016.9 |
| 20260901043408 | 69 | 258 | 2.0 | 4.0 | 0.00 | 0.00 | 0.00 | 79 | 1016.8 |
| 20260901042853 | 69 | 258 | 1.0 | 4.0 | 0.00 | 0.00 | 0.00 | 79 | 1016.9 |
| 20260901042359 | 69 | 258 | 1.0 | 3.0 | 0.00 | 0.00 | 0.00 | 79 | 1016.9 |
| 20260901041903 | 69 | 258 | 1.0 | 3.0 | 0.00 | 0.00 | 0.00 | 80 | 1016.9 |
| 20260901041348 | 69 | 258 | 1.0 | 3.0 | 0.00 | 0.00 | 0.00 | 80 | 1016.9 |
| 20260901040856 | 69 | 258 | 0.0 | 2.0 | 0.00 | 0.00 | 0.00 | 80 | 1017.0 |
| 20260901040350 | 69 | 258 | 0.0 | 3.0 | 0.00 | 0.00 | 0.00 | 80 | 1017.0 |
| 20260901035856 | 69 | 258 | 1.0 | 3.0 | 0.00 | 0.00 | 0.00 | 81 | 1017.1 |
| 20260901035421 | 69 | 258 | 1.0 | 3.0 | 0.00 | 0.00 | 0.00 | 82 | 1017.1 |
| 20260901034843 | 69 | 258 | 1.0 | 2.0 | 0.00 | 0.00 | 0.00 | 82 | 1017.1 |
| 20260901034350 | 69 | 258 | 0.0 | 2.0 | 0.00 | 0.00 | 0.00 | 82 | 1017.1 |
| 20260901033855 | 69 | 258 | 0.0 | 3.0 | 0.00 | 0.00 | 0.00 | 82 | 1017.1 |
| 20260901033358 | 69 | 258 | 0.0 | 4.0 | 0.00 | 0.00 | 0.00 | 82 | 1017.1 |
| 20260901032843 | 69 | 258 | 0.0 | 4.0 | 0.00 | 0.00 | 0.00 | 82 | 1017.0 |
| 20260901032356 | 69 | 258 | 0.0 | 4.0 | 0.00 | 0.00 | 0.00 | 82 | 1017.0 |
| 20260901031840 | 69 | 258 | 0.0 | 3.0 | 0.00 | 0.00 | 0.00 | 82 | 1016.9 |
| 20260901031406 | 69 | 258 | 1.0 | 5.0 | 0.00 | 0.00 | 0.00 | 82 | 1017.0 |
| 20260901030850 | 69 | 258 | 0.0 | 4.0 | 0.00 | 0.00 | 0.00 | 82 | 1016.9 |
| 20260901030348 | 69 | 258 | 2.0 | 4.0 | 0.00 | 0.00 | 0.00 | 82 | 1016.9 |
| 20260901025859 | 69 | 258 | 1.0 | 4.0 | 0.00 | 0.00 | 0.00 | 82 | 1016.8 |
| 20260901025345 | 69 | 258 | 1.0 | 4.0 | 0.00 | 0.00 | 0.00 | 82 | 1016.9 |
| 20260901024848 | 69 | 258 | 1.0 | 5.0 | 0.00 | 0.00 | 0.00 | 82 | 1016.9 |
| 20260901024354 | 69 | 258 | 1.0 | 5.0 | 0.00 | 0.00 | 0.00 | 82 | 1016.8 |
| 20260901023841 | 70 | 258 | 2.0 | 5.0 | 0.00 | 0.00 | 0.00 | 81 | 1016.9 |
| 20260901023342 | 70 | 258 | 0.0 | 5.0 | 0.00 | 0.00 | 0.00 | 81 | 1016.9 |
| 20260901022847 | 70 | 258 | 1.0 | 6.0 | 0.00 | 0.00 | 0.00 | 81 | 1016.8 |
| 20260901022350 | 70 | 258 | 3.0 | 6.0 | 0.00 | 0.00 | 0.00 | 81 | 1016.8 |
| 20260901021853 | 70 | 259 | 2.0 | 4.0 | 0.00 | 0.00 | 0.00 | 81 | 1016.8 |
| 20260901021358 | 70 | 259 | 1.0 | 2.0 | 0.00 | 0.00 | 0.00 | 80 | 1016.8 |
| 20260901020903 | 70 | 259 | 0.0 | 6.0 | 0.00 | 0.00 | 0.00 | 80 | 1016.8 |
| 20260901020341 | 70 | 259 | 0.0 | 6.0 | 0.00 | 0.00 | 0.00 | 80 | 1016.8 |
| 20260901015850 | 70 | 259 | 1.0 | 4.0 | 0.00 | 0.00 | 0.00 | 79 | 1016.9 |
| 20260901015357 | 70 | 259 | 1.0 | 4.0 | 0.00 | 0.00 | 0.00 | 79 | 1016.9 |
| 20260901014841 | 71 | 259 | 0.0 | 2.0 | 0.00 | 0.00 | 0.00 | 79 | 1016.8 |
| 20260901014341 | 71 | 259 | 0.0 | 3.0 | 0.00 | 0.00 | 0.00 | 78 | 1017.0 |
| 20260901013848 | 71 | 259 | 0.0 | 5.0 | 0.00 | 0.00 | 0.00 | 78 | 1017.0 |
| 20260901013351 | 71 | 259 | 1.0 | 8.0 | 0.00 | 0.00 | 0.00 | 78 | 1017.0 |
| 20260901012854 | 71 | 259 | 1.0 | 8.0 | 0.00 | 0.00 | 0.00 | 77 | 1017.0 |
| 20260901012359 | 71 | 261 | 2.0 | 6.0 | 0.00 | 0.00 | 0.00 | 77 | 1017.1 |
| 20260901011841 | 71 | 263 | 1.0 | 6.0 | 0.00 | 0.00 | 0.00 | 76 | 1017.0 |
| 20260901011346 | 71 | 263 | 1.0 | 5.0 | 0.00 | 0.00 | 0.00 | 75 | 1017.0 |
| 20260901010852 | 71 | 263 | 1.0 | 5.0 | 0.00 | 0.00 | 0.00 | 75 | 1017.0 |
| 20260901010344 | 72 | 263 | 3.0 | 5.0 | 0.00 | 0.00 | 0.00 | 74 | 1017.0 |
| 20260901005858 | 72 | 263 | 0.0 | 7.0 | 0.00 | 0.00 | 0.00 | 73 | 1016.9 |
| 20260901005343 | 72 | 263 | 2.0 | 7.0 | 0.00 | 0.00 | 0.00 | 73 | 1016.8 |
| 20260901004846 | 72 | 267 | 3.0 | 6.0 | 0.00 | 0.00 | 0.00 | 72 | 1016.8 |
| 20260901004348 | 72 | 267 | 3.0 | 6.0 | 0.00 | 0.00 | 0.00 | 72 | 1016.7 |
| 20260901003853 | 73 | 268 | 1.0 | 6.0 | 0.00 | 0.00 | 0.00 | 71 | 1016.7 |
| 20260901003355 | 73 | 268 | 3.0 | 6.0 | 0.00 | 0.00 | 0.00 | 71 | 1016.6 |
| 20260901002900 | 73 | 269 | 2.0 | 5.0 | 0.00 | 0.00 | 0.00 | 70 | 1016.6 |
| 20260901002345 | 73 | 269 | 2.0 | 7.0 | 0.00 | 0.00 | 0.00 | 70 | 1016.6 |
| 20260901001908 | 73 | 269 | 3.0 | 7.0 | 0.00 | 0.00 | 0.00 | 69 | 1016.6 |
| 20260901001351 | 74 | 271 | 4.0 | 7.0 | 0.00 | 0.00 | 0.00 | 68 | 1016.6 |
| 20260901000857 | 74 | 275 | 1.0 | 6.0 | 0.00 | 0.00 | 0.00 | 68 | 1016.5 |
| 20260901000354 | 74 | 275 | 2.0 | 6.0 | 0.00 | 0.00 | 0.00 | 67 | 1016.6 |
| 20260831235904 | 74 | 275 | 1.0 | 7.0 | 0.00 | 0.00 | 0.00 | 67 | 1016.6 |
| 20260831235408 | 75 | 278 | 2.0 | 6.0 | 0.00 | 0.00 | 0.00 | 66 | 1016.6 |
| 20260831234848 | 75 | 284 | 2.0 | 6.0 | 0.00 | 0.00 | 0.00 | 65 | 1016.6 |
| 20260831234355 | 75 | 284 | 2.0 | 7.0 | 0.00 | 0.00 | 0.00 | 64 | 1016.6 |
| 20260831233923 | 75 | 286 | 3.0 | 7.0 | 0.00 | 0.00 | 0.00 | 62 | 1016.6 |
| 20260831233425 | 76 | 292 | 3.0 | 7.0 | 0.00 | 0.00 | 0.00 | 61 | 1016.6 |
| 20260831232847 | 76 | 294 | 3.0 | 7.0 | 0.00 | 0.00 | 0.00 | 59 | 1016.6 |
| 20260831232354 | 76 | 311 | 0.0 | 3.0 | 0.00 | 0.00 | 0.00 | 59 | 1016.6 |
| 20260831231856 | 76 | 311 | 1.0 | 3.0 | 0.00 | 0.00 | 0.00 | 58 | 1016.6 |
| 20260831231400 | 76 | 311 | 1.0 | 2.0 | 0.00 | 0.00 | 0.00 | 58 | 1016.6 |
| 20260831230847 | 77 | 311 | 0.0 | 2.0 | 0.00 | 0.00 | 0.00 | 57 | 1016.7 |
| 20260831230342 | 77 | 311 | 0.0 | 2.0 | 0.00 | 0.00 | 0.00 | 57 | 1016.7 |
| 20260831225856 | 77 | 311 | 0.0 | 2.0 | 0.00 | 0.00 | 0.00 | 57 | 1016.7 |
| 20260831225401 | 77 | 311 | 0.0 | 3.0 | 0.00 | 0.00 | 0.00 | 56 | 1016.7 |
| 20260831224904 | 77 | 311 | 1.0 | 3.0 | 0.00 | 0.00 | 0.00 | 56 | 1016.7 |
| 20260831224347 | 77 | 311 | 0.0 | 1.0 | 0.00 | 0.00 | 0.00 | 55 | 1016.7 |
| 20260831223849 | 78 | 311 | 0.0 | 2.0 | 0.00 | 0.00 | 0.00 | 55 | 1016.7 |
| 20260831223412 | 78 | 311 | 0.0 | 3.0 | 0.00 | 0.00 | 0.00 | 55 | 1016.8 |
| 20260831222856 | 78 | 311 | 1.0 | 3.0 | 0.00 | 0.00 | 0.00 | 54 | 1016.7 |
| 20260831222402 | 78 | 311 | 1.0 | 3.0 | 0.00 | 0.00 | 0.00 | 53 | 1016.8 |
| 20260831221848 | 78 | 311 | 0.0 | 3.0 | 0.00 | 0.00 | 0.00 | 53 | 1016.8 |
| 20260831221414 | 79 | 311 | 0.0 | 2.0 | 0.00 | 0.00 | 0.00 | 52 | 1016.9 |
| 20260831220920 | 79 | 311 | 1.0 | 5.0 | 0.00 | 0.00 | 0.00 | 52 | 1016.8 |
| 20260831220354 | 79 | 311 | 1.0 | 5.0 | 0.00 | 0.00 | 0.00 | 52 | 1016.8 |
| 20260831215844 | 79 | 311 | 1.0 | 6.0 | 0.00 | 0.00 | 0.00 | 51 | 1016.8 |
| 20260831215350 | 79 | 312 | 2.0 | 6.0 | 0.00 | 0.00 | 0.00 | 51 | 1016.7 |
| 20260831214853 | 79 | 311 | 2.0 | 5.0 | 0.00 | 0.00 | 0.00 | 52 | 1016.7 |
| 20260831214358 | 79 | 311 | 2.0 | 5.0 | 0.00 | 0.00 | 0.00 | 52 | 1016.8 |
| 20260831213843 | 79 | 311 | 1.0 | 5.0 | 0.00 | 0.00 | 0.00 | 51 | 1016.8 |
| 20260831213347 | 79 | 311 | 1.0 | 5.0 | 0.00 | 0.00 | 0.00 | 51 | 1016.9 |
| 20260831212912 | 80 | 311 | 3.0 | 5.0 | 0.00 | 0.00 | 0.00 | 50 | 1016.8 |
| 20260831212417 | 80 | 311 | 1.0 | 4.0 | 0.00 | 0.00 | 0.00 | 49 | 1016.8 |
| 20260831211859 | 80 | 311 | 1.0 | 6.0 | 0.00 | 0.00 | 0.00 | 48 | 1016.9 |
| 20260831211344 | 81 | 311 | 2.0 | 7.0 | 0.00 | 0.00 | 0.00 | 48 | 1016.9 |
| 20260831210850 | 81 | 309 | 3.0 | 6.0 | 0.00 | 0.00 | 0.00 | 47 | 1016.9 |
| 20260831210345 | 81 | 301 | 2.0 | 6.0 | 0.00 | 0.00 | 0.00 | 48 | 1016.9 |
| 20260831205855 | 81 | 299 | 2.0 | 5.0 | 0.00 | 0.00 | 0.00 | 47 | 1017.0 |
| 20260831205358 | 81 | 299 | 2.0 | 7.0 | 0.00 | 0.00 | 0.00 | 47 | 1017.0 |
| 20260831204923 | 81 | 303 | 3.0 | 7.0 | 0.00 | 0.00 | 0.00 | 46 | 1016.9 |
| 20260831204346 | 81 | 309 | 2.0 | 7.0 | 0.00 | 0.00 | 0.00 | 46 | 1017.0 |
| 20260831203852 | 80 | 295 | 1.0 | 5.0 | 0.00 | 0.00 | 0.00 | 48 | 1017.0 |
| 20260831203353 | 80 | 292 | 2.0 | 6.0 | 0.00 | 0.00 | 0.00 | 48 | 1017.0 |
| 20260831202918 | 80 | 292 | 1.0 | 6.0 | 0.00 | 0.00 | 0.00 | 49 | 1017.0 |
| 20260831202402 | 80 | 292 | 1.0 | 6.0 | 0.00 | 0.00 | 0.00 | 49 | 1017.0 |
| 20260831201906 | 80 | 287 | 2.0 | 5.0 | 0.00 | 0.00 | 0.00 | 50 | 1017.0 |
| 20260831201350 | 80 | 286 | 1.0 | 4.0 | 0.00 | 0.00 | 0.00 | 50 | 1017.0 |
| 20260831200915 | 80 | 286 | 0.0 | 3.0 | 0.00 | 0.00 | 0.00 | 49 | 1017.0 |
| 20260831200352 | 80 | 286 | 1.0 | 5.0 | 0.00 | 0.00 | 0.00 | 50 | 1017.1 |
| 20260831195921 | 80 | 286 | 3.0 | 5.0 | 0.00 | 0.00 | 0.00 | 48 | 1017.0 |
| 20260831195403 | 79 | 285 | 1.0 | 5.0 | 0.00 | 0.00 | 0.00 | 50 | 1017.2 |
| 20260831194844 | 79 | 279 | 1.0 | 5.0 | 0.00 | 0.00 | 0.00 | 49 | 1017.1 |
| 20260831194411 | 79 | 279 | 1.0 | 5.0 | 0.00 | 0.00 | 0.00 | 48 | 1017.1 |
| 20260831193855 | 79 | 279 | 2.0 | 5.0 | 0.00 | 0.00 | 0.00 | 47 | 1017.2 |
| 20260831193415 | 79 | 277 | 1.0 | 5.0 | 0.00 | 0.00 | 0.00 | 52 | 1017.3 |
| 20260831192858 | 79 | 276 | 2.0 | 6.0 | 0.00 | 0.00 | 0.00 | 53 | 1017.5 |
| 20260831192422 | 79 | 278 | 2.0 | 6.0 | 0.00 | 0.00 | 0.00 | 52 | 1017.4 |
| 20260831191900 | 80 | 289 | 1.0 | 6.0 | 0.00 | 0.00 | 0.00 | 52 | 1017.5 |
| 20260831191403 | 80 | 290 | 2.0 | 6.0 | 0.00 | 0.00 | 0.00 | 49 | 1017.5 |
| 20260831190849 | 79 | 306 | 1.0 | 5.0 | 0.00 | 0.00 | 0.00 | 44 | 1017.4 |
| 20260831190404 | 79 | 306 | 0.0 | 5.0 | 0.00 | 0.00 | 0.00 | 45 | 1017.4 |
| 20260831185850 | 79 | 306 | 1.0 | 5.0 | 0.00 | 0.00 | 0.00 | 45 | 1017.5 |
| 20260831185353 | 79 | 312 | 2.0 | 5.0 | 0.00 | 0.00 | 0.00 | 45 | 1017.6 |
| 20260831184853 | 79 | 313 | 0.0 | 6.0 | 0.00 | 0.00 | 0.00 | 45 | 1017.6 |
| 20260831184343 | 80 | 313 | 1.0 | 6.0 | 0.00 | 0.00 | 0.00 | 44 | 1017.7 |
| 20260831183846 | 80 | 312 | 2.0 | 4.0 | 0.00 | 0.00 | 0.00 | 43 | 1017.8 |
| 20260831183348 | 80 | 313 | 1.0 | 5.0 | 0.00 | 0.00 | 0.00 | 44 | 1017.8 |
| 20260831182852 | 80 | 303 | 0.0 | 3.0 | 0.00 | 0.00 | 0.00 | 43 | 1017.9 |
| 20260831182357 | 80 | 303 | 0.0 | 2.0 | 0.00 | 0.00 | 0.00 | 42 | 1018.0 |